Torna al catalogo

SL-14 DEB

AttivoPO
NORAD 39981·DEBRIS·🇷🇺 Russia

Lanciato Aug 18, 1987 da Plesetsk Cosmodrome

Loading…

Prossimi Passaggi (prossime 24 ore)

TLE

AggiornatoSource: Space-Track

Epoca: Sep 14, 2026, 11:22 UTC

1 39981U 87068DH  26257.47423704  .00000434  00000-0  31131-3 0  9995
2 39981  82.5554 158.3805 0008022 310.7175 171.1418 13.95020119624474

Traccia SL-14 DEB in tempo reale con AllMySat

Download on the App Store